Location: Frederiksoord
(52.8419°N, 6.1762°E)
Time: 09:08:53
(UTC+00:00)

Daily predictions for brighter satellites

Satellite Brightness Start Highest point End
(mag) Time Altitude Azimuth Time Altitude Azimuth Time Altitude Azimuth
In-Cosmos 22 Rocket 4.3 17:02:08 10° S 17:07:31 60° E 17:13:05 10° NNE
Cosmos 841 Rocket 3.7 17:02:58 10° SSW 17:08:09 79° WNW 17:13:20 10° NNE
ATLAS 3B R/B 4.2 17:01:20 10° NW 17:08:44 47° WSW 17:15:43 10° S
Cosmos 2084 Rocket 4.5 17:06:18 10° W 17:10:11 38° NNW 17:14:08 10° NE
SAR-Lupe-4 3.8 17:07:17 10° SE 17:10:42 45° ENE 17:14:08 10° N
Cosmos 1125 Rocket 4.1 17:06:47 10° NNW 17:11:34 36° NE 17:16:20 10° ESE
Cosmos 1000 Rocket 4.5 17:08:20 10° S 17:14:29 76° E 17:20:43 10° NNE
IRS-1C 4.2 17:09:10 10° SSE 17:14:30 89° SW 17:19:53 10° NNW
Landsat 7 4.5 17:11:06 10° S 17:15:43 61° W 17:20:21 10° NNW
Okean 2 Rocket 3.6 17:17:23 10° N 17:21:30 37° ENE 17:25:34 10° SE
YAOGAN 1 2.8 17:17:47 10° SE 17:21:52 47° ENE 17:25:58 10° N
Cosmos 2123 Rocket 4.1 17:16:28 10° S 17:22:40 64° E 17:28:55 10° NNE
NOAA 6 4.5 17:20:13 10° SE 17:24:58 40° ENE 17:29:46 10° N
Okean 1 Rocket 3.6 17:20:55 10° N 17:24:59 35° ENE 17:29:01 10° SE
COSMOS 2428 2.7 17:21:21 10° NNW 17:27:06 73° NE 17:32:49 10° SE
Spot 4 Rocket 4.2 17:22:16 10° SE 17:27:10 49° ENE 17:32:05 10° N
Cosmos 1980 4.1 17:25:18 10° NNW 17:30:44 43° NE 17:36:07 10° ESE
Sich 1 Rocket 4.1 17:26:48 10° N 17:31:04 38° ENE 17:35:20 10° SE
ARIANE 5 R/B 3.1 17:28:42 10° S 17:33:47 63° WSW 17:38:50 10° NNW
Cosmos 2237 Rocket 2.6 17:30:55 10° NNW 17:36:22 44° NE 17:41:47 10° ESE
Aureole 3 Rocket 3.6 17:32:21 10° N 17:36:29 32° ENE 17:39:45 10° SE
Cosmos 158 Rocket 4.1 17:33:08 10° S 17:37:47 47° ESE 17:42:27 10° NE
ATLAS 5 CENTAUR R/B 2.7 17:33:57 10° NW 17:37:59 48° SW 17:42:55 10° SSE
Cosmos 192 4.3 17:33:16 10° NNW 17:38:10 76° ENE 17:43:03 10° SSE
SeaSat 1 3.4 17:36:02 10° SSE 17:40:48 52° WSW 17:45:36 10° NW
Cosmos 1378 Rocket 3.5 17:36:49 10° S 17:41:06 63° E 17:45:21 10° NNE
ARIANE 6 FM1 Upper Stage 4.0 17:38:23 10° NW 17:41:38 24° N 17:44:13 13° ENE
SKYMED 2 3.6 17:37:53 10° NNE 17:42:12 59° E 17:46:29 10° S
Resurs 01 Rocket 2.1 17:38:10 10° SE 17:42:14 38° ENE 17:46:20 10° N
GP-B 3.1 17:40:43 10° S 17:45:05 87° W 17:49:30 10° N
Cosmos 2219 Rocket 3.9 17:40:53 10° NW 17:45:57 36° WSW 17:51:00 10° S
COSMO-SKYMED 1 2.9 17:42:34 10° NNE 17:46:28 39° E 17:50:19 10° SSE
Cosmos 2228 4.3 17:44:34 10° NNE 17:47:36 19° ENE 17:49:16 16° E
Cosmos 2292 Rocket 2.8 17:47:38 10° SSW 17:50:30 71° WNW 17:53:35 10° N
Cosmos 2322 4.0 17:45:37 10° NW 17:51:20 74° WSW 17:57:01 10° SSE
PSLV R/B 3.4 17:47:58 10° SSE 17:52:01 59° ENE 17:56:05 10° N
NOSS 3-3 (A) 4.2 17:47:42 10° S 17:52:32 40° ESE 17:57:36 13° NE
Cosmos 2016 Rocket 4.2 17:47:10 10° NNW 17:53:23 77° W 17:59:40 10° S
USA 306 2.6 17:50:42 10° W 17:53:34 39° SSW 17:55:02 16° SE
Resurs 1-3 3.6 17:51:27 10° SSE 17:55:45 82° WSW 18:00:05 10° NNW
Cosmos 1782 4.5 17:54:00 10° NNE 17:55:09 14° NE 17:55:09 14° NE
Cosmos 2285 Rocket 4.0 17:51:48 10° NNW 17:58:14 68° ENE 18:04:37 10° SE
Cosmos 1025 Rocket 3.1 17:55:13 10° S 17:59:25 55° E 18:03:40 10° NNE
SL-16 R/B 3.2 17:54:48 10° NNW 17:59:36 27° NE 18:02:26 18° E
Cosmos 2242 Rocket 4.0 17:55:17 10° SSW 17:59:38 64° WNW 18:04:00 10° N
SJ-7 4.0 17:56:05 10° SSE 17:59:46 80° ENE 18:03:29 10° NNW
Cosmos 2227 Rocket 3.9 18:02:06 10° SE 18:03:35 13° ESE 18:03:35 13° ESE
NOSS 3-4 (A) 3.7 18:02:11 10° NW 18:08:33 67° NE 18:15:10 14° ESE
NOSS 3-4 (C) 3.8 18:02:25 10° NW 18:08:50 66° NE 18:15:23 14° ESE
SJ-6B 2.8 18:05:41 10° SE 18:08:58 41° ENE 18:12:15 10° N
Cosmos 2233 Rocket 4.2 18:03:05 10° NNW 18:09:22 78° W 18:15:39 10° S
SPOT 5 3.7 18:08:21 19° ESE 18:10:59 31° ENE 18:15:23 10° N
CZ-2D R/B 3.8 18:09:46 10° S 18:13:38 63° WSW 18:17:37 10° NNW
Cosmos 1315 Rocket 4.0 18:11:50 10° NNW 18:15:26 42° W 18:19:01 10° SSW
Cosmos 1674 Rocket 3.6 18:11:13 10° SSW 18:15:36 85° W 18:20:03 10° N
Meteor 1-11 4.3 18:13:26 10° SSW 18:19:03 81° WNW 18:24:50 10° NNE
SL-16 R/B 4.4 18:17:58 10° N 18:23:04 28° NW 18:28:11 10° WSW
Okean O Rocket 3.9 18:24:53 10° NNE 18:24:53 10° NNE 18:24:55 10° NNE
Cosmos 1867 3.7 18:17:58 10° SW 18:23:25 78° NW 18:27:56 16° NE
Cosmos 2061 Rocket 4.3 18:18:09 10° NNW 18:24:32 71° W 18:30:49 10° S
ATLAS 2AS CENTAUR R/B 3.6 18:19:24 10° W 18:25:53 40° NNW 18:31:15 14° NE
Cosmos 724 4.4 18:19:57 10° SW 18:26:09 89° NW 18:31:22 15° NE
CZ-4 R/B 2.6 18:28:09 23° NE 18:28:09 23° NE 18:30:12 10° N
Lacrosse 5 rocket 0.9 18:23:38 10° WSW 18:27:08 79° NNW 18:28:21 39° NE
CZ-4B R/B 4.0 18:26:45 26° ENE 18:27:28 27° ENE 18:31:53 10° N
Meteor 1-31 Rocket 3.3 18:32:59 34° NE 18:32:59 34° NE 18:35:31 10° N
ADEOS 4.4 18:32:00 29° ENE 18:32:30 29° ENE 18:36:57 10° N
CZ-4C R/B 1.7 18:28:32 10° SW 18:32:53 76° SE 18:36:09 24° NE
RESURS DK-1 4.5 18:31:54 10° N 18:33:27 13° NNE 18:33:27 13° NNE
IRAS Rocket 4.2 18:30:04 10° SSE 18:35:40 90° ENE 18:41:21 10° NNW
CARTOSAT-1 4.2 18:31:37 10° S 18:35:45 56° W 18:39:56 10° NNW
CRYOSAT 2 4.2 18:31:46 10° N 18:36:41 72° E 18:41:34 10° S
USA 290 3.7 18:37:49 10° SW 18:40:49 36° WNW 18:43:01 16° N
Cosmos 2082 Rocket 4.5 18:38:51 10° NW 18:41:58 15° NNW 18:45:06 10° NNE
Cosmos 1464 Rocket 4.0 18:38:39 10° N 18:45:01 66° ENE 18:51:18 10° SSE
USA 267 3.4 18:41:48 26° ENE 18:45:43 69° NNW 18:52:13 10° W
CSL-04 Debris 4.2 18:44:38 25° SE 18:47:46 58° ENE 18:53:06 10° N
ERS-1 Rocket 3.8 18:48:49 32° NE 18:48:49 32° NE 18:52:44 10° N
Cosmos 2297 Rocket 2.1 18:43:47 10° SSW 18:49:21 62° ESE 18:52:37 25° NE
Cosmos 1607 4.0 18:43:38 10° SW 18:49:48 80° NW 18:54:10 21° NE
Cosmos 1570 Rocket 4.0 18:45:14 10° S 18:50:24 57° ESE 18:52:48 30° NE
CSL-04 Rocket 3.5 18:47:26 23° SE 18:50:41 64° ENE 18:55:55 10° N
Cosmos 1455 Rocket 3.1 18:46:25 10° NNW 18:50:43 73° W 18:54:59 10° S
Cosmos 1943 4.3 18:46:19 10° NNW 18:51:08 27° NE 18:51:35 27° NE
Cosmos 2344 4.3 18:45:18 10° S 18:51:12 28° ESE 18:51:12 28° ESE
DNEPR-1 R/B 3.8 18:47:48 10° NW 18:52:29 75° NE 18:54:13 43° ESE
Cosmos 2221 Rocket 4.3 18:53:51 10° SSW 18:58:14 54° WNW 19:02:41 10° N
PAYLOAD B 4.2 19:05:27 48° ESE 19:06:40 60° ENE 19:12:11 10° N
Cosmos 2208 Rocket 4.0 19:02:28 10° S 19:07:29 57° ESE 19:07:29 57° ESE
Terra 3.0 19:11:52 29° NNE 19:11:52 29° NNE 19:14:35 10° N
NOSS 3-3 (C) 3.8 19:08:39 10° SW 19:14:03 84° NW 19:16:44 36° NE
CZ-4B R/B 4.0 19:14:51 64° SW 19:15:13 68° WSW 19:19:09 10° NNW
Meteor 2-17 Rocket 4.3 19:10:19 10° S 19:16:24 90° W 19:22:30 10° N
Resurs 01 Rocket 3.5 19:14:47 10° SSW 19:18:40 31° W 19:22:36 10° NNW
Cosmos 2237 Rocket 3.2 19:15:05 10° NW 19:20:27 44° WSW 19:25:48 10° S
ARIANE 6 FM1 Upper Stage 3.6 19:17:27 10° NW 19:20:14 39° NNW 19:20:14 39° NNW
COSMO-SKYMED 1 4.5 19:18:06 10° N 19:21:37 27° WNW 19:25:06 10° WSW
Cosmos 44 Rocket 4.5 19:18:41 10° SSW 19:21:21 30° S 19:21:21 30° S
Cosmos 773 Rocket 3.8 19:19:38 10° SSW 19:24:54 81° ESE 19:25:06 79° ENE
Cosmos 2228 3.5 19:20:50 10° NNW 19:24:56 57° W 19:25:37 50° SW
Orbus 7S? 4.4 19:20:21 10° WNW 19:28:10 51° SW 19:28:58 46° SSW
Cosmos 2150 Rocket 4.5 19:27:17 10° NNW 19:32:22 57° WSW 19:33:58 39° SSW
Cosmos 2298 Rocket 4.4 19:27:53 10° NNW 19:33:06 60° WSW 19:34:42 42° SSW
NOSS 3-3 (A) 4.3 19:37:44 10° WSW 19:43:07 59° NNW 19:45:02 42° NNE
SL-16 R/B 2.1 19:38:42 10° NNW 19:44:20 85° W 19:44:20 85° W
Cosmos 2227 Rocket 3.3 19:42:38 10° SSW 19:45:30 31° SSW 19:45:30 31° SSW
SPOT 5 3.7 19:47:22 38° SW 19:48:42 48° W 19:53:36 10° NNW
MOS 1 4.2 19:49:14 83° WSW 19:49:16 83° WSW 19:55:00 10° NNW
Okean O Rocket 4.0 20:02:07 15° N 20:02:07 15° N 20:02:55 10° N
Cosmos 2034 Rocket 4.4 19:54:31 10° NNW 20:00:35 59° W 20:02:53 37° SSW
CZ-4 R/B 3.8 20:03:09 18° NW 20:03:09 18° NW 20:04:24 10° NNW
Lacrosse 5 rocket 3.9 20:00:53 10° WNW 20:01:48 16° WNW 20:01:48 16° WNW
CZ-4B R/B 3.7 20:08:36 54° WNW 20:08:36 54° WNW 20:13:00 10° NNW
Cosmos 1634 Rocket 4.2 20:04:35 10° NNW 20:10:08 69° NNW 20:10:08 69° NNW
BREEZE-M DEB (TANK) 4.3 19:56:44 10° WSW 20:10:45 51° SSW 20:10:45 51° SSW
ADEOS 4.4 20:12:43 48° WNW 20:12:43 48° WNW 20:16:52 10° NNW
ATLAS 2AS CENTAUR R/B 3.7 20:12:14 10° WNW 20:18:24 34° N 20:18:40 34° NNE
CZ-4C R/B 3.3 20:17:04 10° W 20:21:07 37° NNW 20:21:07 37° NNW
USA 267 3.5 20:29:08 62° NNW 20:29:08 62° NNW 20:34:56 10° WNW
Cosmos 2297 Rocket 3.6 20:28:38 10° WSW 20:33:46 34° NW 20:34:29 33° NNW
Cosmos 1943 4.5 20:30:08 10° NNW 20:33:23 36° NNW 20:33:23 36° NNW
Terra 4.2 20:50:29 19° NW 20:50:29 19° NW 20:52:03 10° NNW
